Location: Gradaro
(45.0833°N, 10.8833°E)
Time: 23:08:44
(UTC+00:00)

FENGYUN 1C DEB - Pass Details

Date: 26 June 2021
Orbit: 744 x 851 km, 99.4° (Epoch: 27 July)

Event Time Altitude Azimuth Distance (km) Brightness Sun altitude
Exits shadow 23:11:31 30° 126° (SE) 1,428 ? -21.6°
Maximum altitude 23:13:49 50° 69° (ENE) 1,028 ? -21.6°
Drops below altitude 10° 23:18:54 10° 355° (N) 2,384 ? -21.6°
Sets 23:21:15 0° 350° (N) 3,301 ? -21.6°
